Regional Weather Roundup
Issued by NWS Sioux Falls, SD

Home | Current Version | Previous Version | Text Only | Print | Product List | Glossary On
Versions: 1 2 3 4 5 6 7 8 9 10 11 12 13 14 15 16 17 18 19 20 21 22 23 24 25 26 27 28 29 30 31 32 33 34 35 36 37 38 39 40 41 42 43 44 45 46 47 48 49 50
000
ASUS43 KFSD 261410
RWRFSD

WEATHER ROUNDUP FOR SE SOUTH DAKOTA/SW MINNESOTA/NW IOWA
NATIONAL WEATHER SERVICE SIOUX FALLS SD
900 AM CDT MON SEP 26 2016

NOTE: "FAIR" INDICATES FEW OR NO CLOUDS BELOW 12,000 FEET WITH NO
SIGNIFICANT WEATHER AND OR OBSTRUCTIONS TO VISIBILITY.


SDZ038>040-050-052>070-261500-
SOUTHEAST SOUTH DAKOTA

CITY           SKY/WX    TMP DP  RH WIND       PRES   REMARKS
BROOKINGS      SUNNY     49  38  65 NW9       30.13S HAZE
CHAMBERLAIN    SUNNY     51  38  61 W9        30.22S
HURON          SUNNY     51  39  63 W14       30.17S
MADISON        FAIR      46  37  71 W12       30.16S
MITCHELL       SUNNY     50  39  66 W9        30.20S
SIOUX FALLS    MOSUNNY   51  39  63 W8        30.17R
WINNER         FAIR      53  38  56 SW3       30.24R
YANKTON        SUNNY     54  37  54 W12       30.20S
$$

MNZ071-072-080-081-089-090-097-098-261500-
SOUTHWEST MINNESOTA

CITY           SKY/WX    TMP DP  RH WIND       PRES   REMARKS
FAIRMONT       SUNNY     53  37  54 W16       30.08S
JACKSON        SUNNY     52  34  50 W13G20    30.10S
LUVERNE        SUNNY     46  36  66 W13       30.16S
MARSHALL       SUNNY     54  37  52 W16       30.08S
MONTEVIDEO     SUNNY     54  37  54 NW10G22   30.06S
PIPESTONE      SUNNY     48  37  66 W10       30.13S
REDWOOD FALLS  SUNNY     53  36  52 W16       30.04S
TRACY          SUNNY     53  38  55 W7G17     30.09S
WINDOM         SUNNY     54  36  50 W14       30.08F
WORTHINGTON    SUNNY     49  37  63 W14       30.13S
$$

IAZ001>003-012>014-020>022-031-032-NEZ013-014-SDZ071-261500-
NORTHWEST IOWA

CITY           SKY/WX    TMP DP  RH WIND       PRES   REMARKS
CHEROKEE       SUNNY     50  41  71 W9        30.18R
DENISON        SUNNY     50  41  71 SW5       30.19S
ESTHERVILLE    SUNNY     51  38  60 W15       30.10S
LE MARS        SUNNY     52  41  66 W6G12     30.20S
ORANGE CITY    SUNNY     48  41  76 W12       30.18S
SHELDON        SUNNY     50  37  62 W12G18    30.14F
SIOUX CITY     SUNNY     52  40  63 NW8       30.21S
SPENCER        SUNNY     50  39  66 W14       30.14S
STORM LAKE     SUNNY     48  41  76 W12       30.17S
$$

ABBREVIATIONS USED IN REMARKS
   TC - TEMPERATURE IN CELSIUS
  WCI - WIND CHILL INDEX
   HX - HEAT INDEX
  VSB - VISIBILITY





USA.gov is the U.S. government's official web portal to all federal, state and local government web resources and services.